Miscellaneous Local Product
Issued by NWS Hastings, NE

Home | Current Version | Previous Version | Graphics & Text | Print | Product List | Glossary On
Versions: 1 2 3 4 5 6 7 8 9 10 11 12 13 14 15 16 17 18 19 20 21 22 23 24 25 26 27 28 29 30 31 32 33 34 35 36 37 38 39 40 41 42 43 44 45 46 47 48 49 50
000
AXUS43 KGID 291202
MISGRI

GID CWA HOURLY WEATHER ROUNDUP
NATIONAL WEATHER SERVICE HASTINGS NE
700 AM CDT SUN MAY 29 2016

NOTE: "FAIR" INDICATES FEW OR NO CLOUDS BELOW 12,000 FEET WITH NO
SIGNIFICANT WEATHER AND/OR OBSTRUCTIONS TO VISIBILITY.

...SOUTH CENTRAL NEBRASKA...

CITY           SKY/WX    TMP DP  RH WIND       PRES   REMARKS
GRAND ISLAND   CLEAR     57  55  93 S6        30.09R
HASTINGS       CLEAR     55  52  89 W3        30.09R
KEARNEY        MOCLDY    54  48  82 CALM      30.11R
ORD            CLEAR     53  52  96 CALM      30.07R
YORK           PTCLDY    55  55 100 SW7       30.08R
AURORA         CLEAR     58  57  96 S6        30.08R
LEXINGTON      CLEAR     53  50  91 W3        30.11R
HOLDREGE       CLEAR     53  50  92 NW3       30.10R
HEBRON         CLEAR     56  54  94 CALM      30.08R

...NEBRASKA PANHANDLE...

CITY           SKY/WX    TMP DP  RH WIND       PRES   REMARKS
CHADRON        CLEAR     37  36  96 W5        30.10R WCI  33
ALLIANCE       PTCLDY    38  38 100 CALM      30.10R FOG
SCOTTSBLUFF    CLEAR     45  42  89 N3        30.11R
SIDNEY         CLEAR     42  40  92 S6        30.12R

...WESTERN AND NORTH CENTRAL NEBRASKA...

CITY           SKY/WX    TMP DP  RH WIND       PRES   REMARKS
VALENTINE      CLEAR     50  47  89 W5        30.09R
AINSWORTH      CLEAR     52  50  93 CALM      30.08R
ONEILL         CLEAR     57  54  88 W6        30.07R
BROKEN BOW     CLEAR     54  50  86 CALM      30.09R
IMPERIAL       CLEAR     50  48  93 NW3       30.12R
NORTH PLATTE   CLEAR     48  47  96 CALM      30.11R
MCCOOK         CLEAR     53  48  83 N3        30.10R

...EASTERN NEBRASKA...

CITY           SKY/WX    TMP DP  RH WIND       PRES   REMARKS
NORFOLK        CLOUDY    57  54  89 SW3       30.06R
SO SIOUX CITY  CLOUDY    57  56  96 CALM      30.04R
TEKAMAH        CLOUDY    56  54  93 S3        30.05R
COLUMBUS       CLEAR     54  46  76 CALM      30.07R
ALBION         CLEAR     55  53  92 CALM      30.07R
OMAHA EPPLEY   CLOUDY    58  55  90 SE3       30.05R
MILLARD        CLOUDY    56  55  95 CALM      30.05R
LINCOLN        MOCLDY    58  56  93 CALM      30.07R
NEBRASKA CITY  SUNNY     58  58 100 CALM      30.07R
BEATRICE       MOCLDY    59  57  92 CALM      30.07R
FALLS CITY     MOSUNNY   60  59  96 S5        30.06R

...NORTHERN KANSAS...

CITY           SKY/WX    TMP DP  RH WIND       PRES   REMARKS
GOODLAND       CLEAR     49  46  90 SW3       30.12R
HILL CITY      CLOUDY    55  52  89 CALM      30.11R
NORTON         SUNNY     55  46  71 SW5       30.08R
PHILLIPSBURG   CLEAR     55  54  94 CALM      30.09R
SMITH CENTER   PTCLDY    55  54  94 S6        30.09R
BELOIT         CLEAR     59  55  88 CALM      30.09R
HAYS           MOCLDY    61  48  63 SE8       30.10F
RUSSELL        CLEAR     58  55  90 W17       30.11R
CONCORDIA      CLOUDY    61  57  87 CALM      30.08R
SALINA         CLEAR     60  57  89 S7        30.09R
TOPEKA         CLEAR     61  58  90 N5        30.07R



USA.gov is the U.S. government's official web portal to all federal, state and local government web resources and services.